Regional Weather Roundup
Issued by NWS Kansas City/Pleasant Hill, MO

Home | Current Version | Previous Version | Graphics & Text | Print | Product List | Glossary Off
Versions: 1 2 3 4 5 6 7 8 9 10 11 12 13 14 15 16 17 18 19 20 21 22 23 24 25

000
ASUS43 KEAX 181210
RWREAX

WEATHER ROUNDUP FOR EASTERN KANSAS AND NORTHWEST MISSOURI
NATIONAL WEATHER SERVICE KANSAS CITY/PLEASANT HILL MO
600 AM CST SUN FEB 18 2018

KSZ040-057-103>105-MOZ028-029-037-043-181300-
...KANSAS CITY METROPOLITAN AREA...

CITY           SKY/WX    TMP DP  RH WIND       PRES   REMARKS
K.C. INTL      CLOUDY    38  31  76 S14       30.07F WCI  30
6HR MIN TEMP:  31; 6HR MAX TEMP:  38;

K.C. DOWNTOWN  CLOUDY    42  32  67 S9G20     30.09F
6HR MIN TEMP:  33; 6HR MAX TEMP:  44;

LEES SUMMIT    CLOUDY    36  32  85 S12       30.10F WCI  28
6HR MIN TEMP:  36; 6HR MAX TEMP:  38;

OLATHE - IXD   CLOUDY    36  33  89 S12       30.09F WCI  28
6HR MIN TEMP:  26; 6HR MAX TEMP:  37;

OLATHE - OJC   CLOUDY    37  33  85 S9        30.08F WCI  30
6HR MIN TEMP:  32; 6HR MAX TEMP:  38;

LAWRENCE       CLOUDY    36  32  85 E10       30.06F WCI  28

$$

MOZ001>008-011>017-020>025-030>033-038>040-044>046-053-054-181300-
...NORTHERN AND CENTRAL MISSOURI...

CITY           SKY/WX    TMP DP  RH WIND       PRES   REMARKS
ST. JOSEPH     CLOUDY    35  27  72 S10       30.05F WCI  27
6HR MIN TEMP:  19; 6HR MAX TEMP:  35;

MOSBY          CLOUDY    32  25  74 SE3       30.10F
WARRENSBURG    PTCLDY    32  30  93 SE7       30.13F WCI  26
WHITEMAN AFB   CLOUDY    33  29  87 S8        30.10F WCI  26
6HR MIN TEMP:  29; 6HR MAX TEMP:  35;

CLINTON        CLOUDY    32  32 100 S5        30.16F WCI  27
SEDALIA        CLOUDY    34  33  96 S9        30.17F WCI  27
6HR MIN TEMP:  29; 6HR MAX TEMP:  36;

WARSAW         NOT AVBL
CHILLICOTHE      N/A     33  22  63 SE7       30.13F WCI  27
6HR MIN TEMP:  21; 6HR MAX TEMP:  34;

KIRKSVILLE     CLOUDY    31  24  75 S10       30.15F WCI  22
6HR MIN TEMP:  22; 6HR MAX TEMP:  31;


$$

MOZ041-047>049-056>058-063>065-088>090-097-181300-
...EASTERN AND SOUTHERN MISSOURI...

CITY           SKY/WX    TMP DP  RH WIND       PRES   REMARKS
ST. LOUIS INTL PTCLDY    33  29  85 SE8       30.26S WCI  26
6HR MIN TEMP:  27; 6HR MAX TEMP:  34;

SPIRIT OF STL  PTCLDY    22  21  96 CALM      30.25S
COLUMBIA       CLOUDY    29  25  85 SE8       30.19F WCI  21
JEFFERSON CITY CLOUDY    25  23  92 CALM      30.22F
ROLLA          CLOUDY    33  29  85 SE8       30.21F WCI  26
OSAGE BEACH    CLOUDY    30  29  96 SE5       30.20F WCI  25
SPRINGFIELD    CLOUDY    33  32  96 SE9       30.15F WCI  25
JOPLIN         CLOUDY    33  32  96 S8        30.15F WCI  26
WEST PLAINS    CLOUDY    26  25  96 E3        30.23F FOG

$$

IAZ060-094-KSZ022-034>040-054-083-096-NEZ052-066-093-181300-
...KANSAS...SOUTHEAST NEBRASKA AND IOWA...

CITY           SKY/WX    TMP DP  RH WIND       PRES   REMARKS
TOPEKA         CLOUDY    42  33  70 S10       30.04F
6HR MIN TEMP:  25; 6HR MAX TEMP:  42;

MANHATTAN      CLOUDY    42  25  50 S10       29.98F
EMPORIA        CLOUDY    36  31  82 S15G22    30.03F WCI  27
CHANUTE        CLOUDY    37  33  85 SE12      30.10F WCI  29
WICHITA        PTCLDY    39  30  70 S14       30.02F WCI  31
OMAHA          CLEAR     34  23  64 S18       29.91F WCI  23
LINCOLN        CLOUDY    37  20  50 S15       29.88F WCI  28
FALLS CITY     CLOUDY    36  23  59 S13       29.99F WCI  27
LAMONI         CLOUDY    29  20  69 SE9       30.05F WCI  20
DES MOINES     CLEAR     28  23  81 SE13      30.06F WCI  17

$$





USA.gov is the U.S. government's official web portal to all federal, state and local government web resources and services.